EA3GYL La Torregassa ES current weather conditions

sailwx.info

Wind from 036 at 1 knots gusting 3

Air temperature 20.0° C
Dewpoint 13.7° C

Last reported at 2014-Oct-25 18:50 UTC.
Time now 2014-Oct-25 19:50 UTC

Location: N 41°17' E 001°31'.
View on Google Maps.

See reports from other nearby stations

  
Tides and Currents Weather Stations Pressure Air Temp Water Temp Dewpoint Dewpoint Depression Visibility Wind Speed Wind Dir Waves Ship Positions
date/time (UTC)wind fromknots sea level pressurealtimeterstation pressurevisibilityair tempwater tempwave heightnotes
2014-Oct-25 18:50 036 1 gusting 3 20.0
2014-Oct-25 18:40 19.4
2014-Oct-25 18:30 19.4
2014-Oct-25 18:20 19.4
2014-Oct-25 18:10 20.0
2014-Oct-25 18:00 295 0 gusting 1 20.6
2014-Oct-25 17:50 21.1
2014-Oct-25 17:40 297 0 gusting 1 21.7
2014-Oct-25 17:30 335 0 gusting 2 21.7
2014-Oct-25 17:20 275 0 gusting 2 21.7
2014-Oct-25 17:10 22.2
2014-Oct-25 17:00 271 0 gusting 3 22.8
2014-Oct-25 16:50 249 1 gusting 3 23.3
2014-Oct-25 16:40 259 1 gusting 4 23.9
2014-Oct-25 16:30 262 3 gusting 6 24.4
2014-Oct-25 16:20 259 3 gusting 7 24.4
2014-Oct-25 16:10 259 2 gusting 6 25.0
2014-Oct-25 16:00 254 3 gusting 6 25.6
2014-Oct-25 15:50 255 2 gusting 6 25.6
2014-Oct-25 15:40 255 1 gusting 6 25.6
2014-Oct-25 15:30 092 0 gusting 5 25.6
2014-Oct-25 15:20 123 0 gusting 2 26.1
2014-Oct-25 15:10 105 1 gusting 3 25.6
2014-Oct-25 15:00 115 2 gusting 5 25.6
2014-Oct-25 14:50 133 3 gusting 6 25.6
2014-Oct-25 14:40 136 4 gusting 7 25.6
2014-Oct-25 14:30 112 3 gusting 7 26.1
2014-Oct-25 14:20 111 2 gusting 6 26.1
2014-Oct-25 14:10 102 2 gusting 5 26.1
2014-Oct-25 14:00 116 2 gusting 6 26.1
2014-Oct-25 13:50 110 2 gusting 5 25.6
2014-Oct-25 13:40 110 2 gusting 6 26.1
2014-Oct-25 13:30 120 3 gusting 6 26.1
2014-Oct-25 13:20 087 2 gusting 6 25.6
2014-Oct-25 13:10 112 1 gusting 4 25.6
2014-Oct-25 13:00 132 1 gusting 4 25.6
2014-Oct-25 12:50 124 2 gusting 5 24.4
2014-Oct-25 12:40 131 2 gusting 5 24.4
2014-Oct-25 12:30 133 2 gusting 5 25.0
2014-Oct-25 12:20 146 1 gusting 4 25.0
2014-Oct-25 12:10 149 1 gusting 3 25.0
2014-Oct-25 12:00 136 1 gusting 4 24.4
2014-Oct-25 11:50 161 2 gusting 6 24.4
2014-Oct-25 11:40 156 2 gusting 4 24.4
2014-Oct-25 11:30 148 2 gusting 5 25.0
2014-Oct-25 11:20 141 1 gusting 3 25.0
2014-Oct-25 11:10 142 1 gusting 4 25.0
2014-Oct-25 11:00 127 0 gusting 4 25.0
2014-Oct-25 08:40 21.1
2014-Oct-25 08:30 20.6
2014-Oct-25 08:20 20.0
2014-Oct-25 08:10 19.4
2014-Oct-25 07:50 18.3
2014-Oct-25 00:10 16.7
2014-Oct-25 00:00 16.7
2014-Oct-24 23:50 16.7
2014-Oct-24 23:40 322 0 gusting 0 16.7
2014-Oct-24 23:30 16.7
2014-Oct-24 23:20 16.7
2014-Oct-24 23:10 16.7
2014-Oct-24 23:00 16.7
2014-Oct-24 22:50 16.7
2014-Oct-24 22:40 16.7
2014-Oct-24 22:30 16.7
2014-Oct-24 22:20 16.7
2014-Oct-24 22:10 16.7
2014-Oct-24 22:00 17.2
2014-Oct-24 21:50 17.2
2014-Oct-24 21:40 17.2
2014-Oct-24 21:30 17.2
2014-Oct-24 21:20 17.2
2014-Oct-24 21:10 17.2
2014-Oct-24 21:00 17.2
2014-Oct-24 20:50 17.2
2014-Oct-24 20:40 17.8
2014-Oct-24 20:30 17.8
2014-Oct-24 20:20 341 0 gusting 2 17.8
2014-Oct-24 20:10 17.8
2014-Oct-24 20:00 17.8
2014-Oct-24 19:50 17.8
2014-Oct-24 19:40 321 0 gusting 1 17.8
2014-Oct-24 19:30 304 0 gusting 1 17.8
2014-Oct-24 19:20 306 0 gusting 1 17.8
2014-Oct-24 19:10 18.3
2014-Oct-24 19:00 034 0 gusting 1 18.3
2014-Oct-24 18:50 032 1 gusting 2 18.9
2014-Oct-24 18:40 036 1 gusting 3 18.9
2014-Oct-24 18:30 044 1 gusting 3 18.9
2014-Oct-24 18:20 040 1 gusting 2 18.9
2014-Oct-24 18:10 046 0 gusting 1 18.9
2014-Oct-24 18:00 042 0 gusting 2 18.9
2014-Oct-24 17:50 043 0 gusting 2 18.9
2014-Oct-24 17:40 038 0 gusting 2 19.4
2014-Oct-24 17:30 037 0 gusting 2 19.4
2014-Oct-24 17:20 050 0 gusting 2 19.4
2014-Oct-24 17:10 20.0
2014-Oct-24 17:00 20.6
2014-Oct-24 16:50 20.6
2014-Oct-24 16:40 21.1
2014-Oct-24 16:30 133 0 gusting 2 21.7
2014-Oct-24 16:20 123 1 gusting 4 22.2
2014-Oct-24 16:10 115 0 gusting 3 23.3
2014-Oct-24 16:00 135 0 gusting 2 23.3
2014-Oct-24 15:50 137 0 gusting 2 23.3
2014-Oct-24 15:40 143 1 gusting 2 23.9
2014-Oct-24 15:30 136 1 gusting 4 23.9
2014-Oct-24 15:20 136 0 gusting 2 24.4
2014-Oct-24 15:10 134 1 gusting 4 24.4
2014-Oct-24 15:00 136 1 gusting 4 24.4
2014-Oct-24 14:50 121 2 gusting 5 24.4
2014-Oct-24 14:20 132 2 gusting 5 25.0
2014-Oct-24 14:10 141 3 gusting 6 25.6
2014-Oct-24 14:00 134 3 gusting 6 26.1
2014-Oct-24 13:50 135 2 gusting 5 26.1
2014-Oct-24 13:40 139 2 gusting 6 26.1
2014-Oct-24 13:30 135 2 gusting 6 26.1
2014-Oct-24 13:20 122 3 gusting 5 25.6
2014-Oct-24 13:10 122 2 gusting 6 25.6
2014-Oct-24 13:00 109 3 gusting 6 25.6
2014-Oct-24 12:50 123 3 gusting 6 25.6
2014-Oct-24 12:40 132 3 gusting 7 26.1
2014-Oct-24 12:30 122 3 gusting 6 26.1
2014-Oct-24 12:20 114 3 gusting 6 26.7
2014-Oct-24 12:10 106 2 gusting 5 26.7
2014-Oct-24 12:00 090 1 gusting 5 26.7
2014-Oct-24 11:50 107 1 gusting 4 26.7
2014-Oct-24 11:40 087 1 gusting 4 26.1
2014-Oct-24 11:30 097 1 gusting 4 25.6
2014-Oct-24 11:20 094 1 gusting 4 25.0
2014-Oct-24 11:10 084 1 gusting 4 25.0
2014-Oct-24 11:00 117 0 gusting 3 25.0
2014-Oct-24 10:50 24.4
2014-Oct-24 10:40 123 0 gusting 2 24.4
2014-Oct-24 10:30 100 0 gusting 2 23.9
2014-Oct-24 10:20 111 0 gusting 3 23.3
2014-Oct-24 10:10 085 0 gusting 2 22.8
2014-Oct-24 10:00 22.2
2014-Oct-24 09:50 069 0 gusting 2 22.2
2014-Oct-24 09:40 21.7
2014-Oct-24 09:30 078 0 gusting 3 21.1
2014-Oct-24 09:20 099 0 gusting 1 21.1
2014-Oct-24 09:10 084 0 gusting 1 20.6
2014-Oct-24 09:00 051 0 gusting 3 20.0
2014-Oct-24 08:50 060 0 gusting 2 19.4
2014-Oct-24 08:40 067 1 gusting 3 18.9
2014-Oct-24 08:30 071 0 gusting 2 18.3
2014-Oct-24 08:20 18.3
2014-Oct-24 08:10 17.8
2014-Oct-24 08:00 139 0 gusting 2 17.2
2014-Oct-24 07:50 16.7
2014-Oct-24 07:40 17.2
2014-Oct-24 00:10 307 0 gusting 1 16.1
2014-Oct-24 00:00 16.1
2014-Oct-23 23:50 16.1
2014-Oct-23 23:40 355 1 gusting 2 15.6
2014-Oct-23 23:30 295 0 gusting 1 15.0
2014-Oct-23 23:20 15.6
2014-Oct-23 23:10 277 0 gusting 2 15.6
2014-Oct-23 23:00 263 0 gusting 4 16.7
2014-Oct-23 22:50 010 0 gusting 2 17.8
2014-Oct-23 22:40 043 2 gusting 5 17.8
2014-Oct-23 22:30 042 2 gusting 4 17.8
2014-Oct-23 22:20 058 1 gusting 6 17.2
2014-Oct-23 22:10 070 0 gusting 3 17.2
2014-Oct-23 22:00 001 0 gusting 3 18.3
2014-Oct-23 21:50 316 1 gusting 4 18.3
2014-Oct-23 21:40 296 1 gusting 5 17.8
2014-Oct-23 21:30 312 0 gusting 2 17.8
2014-Oct-23 21:20 034 1 gusting 5 17.2
2014-Oct-23 21:10 034 0 gusting 3 16.7
2014-Oct-23 21:00 16.7
2014-Oct-23 20:50 17.2
2014-Oct-23 20:40 17.2
2014-Oct-23 20:30 17.8
2014-Oct-23 20:20 329 0 gusting 1 17.8
2014-Oct-23 20:10 328 0 gusting 1 17.8
2014-Oct-23 20:00 007 0 gusting 1 18.3
2014-Oct-23 19:50 013 0 gusting 3 17.8
2014-Oct-23 19:40 032 0 gusting 3 17.8
2014-Oct-23 19:30 056 0 gusting 2 18.3
2014-Oct-23 19:20 17.8
2014-Oct-23 19:10 18.3
2014-Oct-23 19:00 018 1 gusting 3 18.3